N60SB -KLAL

Flight info

Callsign N60SB
Flight time N/A
Altitude VFR/030
Route
Aircraft L39/L-DOV/C

Departure

Time N/A
Airport -

Arrival

Time 2026-04-22 00:55
Airport Lakeland Linder International Airport (KLAL)
Time Latitude Longitude Altitude Speed Heading
2026-04-21 23:50 30.33659 -81.51371 53 ft 0 kts 45°
2026-04-21 23:54 30.33660 -81.51370 53 ft 0 kts 43°
2026-04-21 23:54 30.33676 -81.51376 51 ft 5 kts 313°
2026-04-21 23:55 30.33705 -81.51373 53 ft 0 kts 81°
2026-04-21 23:55 30.33706 -81.51368 53 ft 6 kts 91°
2026-04-21 23:55 30.33659 -81.51304 55 ft 14 kts 135°
2026-04-21 23:55 30.33624 -81.51216 52 ft 8 kts 100°
2026-04-21 23:56 30.33608 -81.51186 52 ft 0 kts 136°
2026-04-21 23:56 30.33604 -81.51182 53 ft 5 kts 134°
2026-04-21 23:56 30.33563 -81.51133 49 ft 9 kts 159°
2026-04-21 23:57 30.33444 -81.51257 50 ft 49 kts 223°
2026-04-21 23:57 30.33095 -81.51660 91 ft 87 kts 225°
2026-04-21 23:57 30.32627 -81.52185 274 ft 99 kts 223°
2026-04-21 23:57 30.32113 -81.52743 520 ft 104 kts 224°
2026-04-21 23:58 30.31607 -81.53344 802 ft 104 kts 228°
2026-04-21 23:58 30.31129 -81.53958 1109 ft 102 kts 229°
2026-04-21 23:58 30.30631 -81.54573 1353 ft 107 kts 228°
2026-04-21 23:58 30.30126 -81.55191 1683 ft 105 kts 228°
2026-04-21 23:59 30.29592 -81.55813 1890 ft 118 kts 226°
2026-04-21 23:59 30.28826 -81.56228 2128 ft 127 kts 187°
2026-04-21 23:59 30.27920 -81.56174 2311 ft 133 kts 172°
2026-04-21 23:59 30.26985 -81.56006 2444 ft 141 kts 171°
2026-04-22 00:00 30.26012 -81.55837 2680 ft 138 kts 173°
2026-04-22 00:00 30.25055 -81.55855 2802 ft 142 kts 188°
2026-04-22 00:00 30.24082 -81.56058 3012 ft 138 kts 188°
2026-04-22 00:00 30.23097 -81.56111 3075 ft 147 kts 177°
2026-04-22 00:01 30.22051 -81.56032 3134 ft 154 kts 175°
2026-04-22 00:01 30.20969 -81.55944 3194 ft 157 kts 175°
2026-04-22 00:01 30.19844 -81.55858 3242 ft 169 kts 176°
2026-04-22 00:01 30.18641 -81.55786 3311 ft 177 kts 178°
2026-04-22 00:02 30.17383 -81.55746 3411 ft 183 kts 178°
2026-04-22 00:02 30.16108 -81.55708 3547 ft 184 kts 178°
2026-04-22 00:02 30.14824 -81.55665 3674 ft 184 kts 178°
2026-04-22 00:02 30.13541 -81.55621 3804 ft 184 kts 176°
2026-04-22 00:03 30.12266 -81.55465 3940 ft 185 kts 169°
2026-04-22 00:03 30.10984 -81.55303 4068 ft 186 kts 171°
2026-04-22 00:03 30.09710 -81.55049 4187 ft 185 kts 160°
2026-04-22 00:03 30.08453 -81.54707 4316 ft 187 kts 170°
2026-04-22 00:04 30.07141 -81.54816 4442 ft 191 kts 189°
2026-04-22 00:04 30.05844 -81.55146 4601 ft 189 kts 190°
2026-04-22 00:04 30.04576 -81.55428 4803 ft 184 kts 187°
2026-04-22 00:04 30.03315 -81.55679 4998 ft 183 kts 187°
2026-04-22 00:05 30.02073 -81.55941 5195 ft 180 kts 187°
2026-04-22 00:05 30.00844 -81.56200 5393 ft 179 kts 187°
2026-04-22 00:05 29.99625 -81.56454 5578 ft 177 kts 187°
2026-04-22 00:05 29.98418 -81.56707 5770 ft 176 kts 187°
2026-04-22 00:06 29.97219 -81.56960 5962 ft 175 kts 187°
2026-04-22 00:06 29.96028 -81.57206 6165 ft 173 kts 186°
2026-04-22 00:06 29.94837 -81.57456 6362 ft 174 kts 187°
2026-04-22 00:06 29.93650 -81.57703 6564 ft 172 kts 187°
2026-04-22 00:07 29.92474 -81.57949 6757 ft 171 kts 187°
2026-04-22 00:07 29.91307 -81.58194 6949 ft 170 kts 187°
2026-04-22 00:07 29.90148 -81.58438 7134 ft 169 kts 187°
2026-04-22 00:07 29.88996 -81.58676 7326 ft 167 kts 187°
2026-04-22 00:08 29.87871 -81.58911 7510 ft 166 kts 187°
2026-04-22 00:08 29.86741 -81.59146 7703 ft 164 kts 187°
2026-04-22 00:08 29.85619 -81.59381 7898 ft 163 kts 188°
2026-04-22 00:08 29.84508 -81.59612 8086 ft 162 kts 188°
2026-04-22 00:09 29.83406 -81.59842 8278 ft 160 kts 188°
2026-04-22 00:09 29.82313 -81.60057 8473 ft 159 kts 192°
2026-04-22 00:09 29.81313 -81.60584 8672 ft 159 kts 208°
2026-04-22 00:09 29.80334 -81.61162 8867 ft 157 kts 207°
2026-04-22 00:10 29.79358 -81.61719 9068 ft 157 kts 207°
2026-04-22 00:10 29.78387 -81.62271 9269 ft 154 kts 207°
2026-04-22 00:10 29.77402 -81.62827 9326 ft 163 kts 207°
2026-04-22 00:10 29.76354 -81.63418 9337 ft 172 kts 207°
2026-04-22 00:11 29.75259 -81.64037 9339 ft 179 kts 207°
2026-04-22 00:11 29.74120 -81.64682 9342 ft 188 kts 207°
2026-04-22 00:11 29.72895 -81.65374 9344 ft 204 kts 207°
2026-04-22 00:11 29.71587 -81.66118 9347 ft 215 kts 207°
2026-04-22 00:12 29.70321 -81.67068 9345 ft 221 kts 220°
2026-04-22 00:12 29.69138 -81.68229 9344 ft 226 kts 222°
2026-04-22 00:12 29.67945 -81.69412 9308 ft 229 kts 222°
2026-04-22 00:12 29.66744 -81.70615 9329 ft 230 kts 222°
2026-04-22 00:13 29.65537 -81.71826 9334 ft 231 kts 222°
2026-04-22 00:13 29.64322 -81.73041 9284 ft 233 kts 222°
2026-04-22 00:13 29.63114 -81.74251 9154 ft 228 kts 222°
2026-04-22 00:13 29.61925 -81.75443 9023 ft 226 kts 222°
2026-04-22 00:14 29.60745 -81.76628 8894 ft 224 kts 222°
2026-04-22 00:14 29.59574 -81.77806 8759 ft 224 kts 222°
2026-04-22 00:14 29.58404 -81.78984 8633 ft 223 kts 222°
2026-04-22 00:14 29.57239 -81.80162 8504 ft 223 kts 222°
2026-04-22 00:15 29.56073 -81.81342 8380 ft 223 kts 222°
2026-04-22 00:15 29.54907 -81.82519 8258 ft 223 kts 222°
2026-04-22 00:15 29.53743 -81.83700 8130 ft 223 kts 222°
2026-04-22 00:15 29.52578 -81.84883 8005 ft 224 kts 222°
2026-04-22 00:16 29.51412 -81.86068 7887 ft 224 kts 222°
2026-04-22 00:16 29.50244 -81.87262 7762 ft 225 kts 222°
2026-04-22 00:16 29.49083 -81.88454 7664 ft 223 kts 222°
2026-04-22 00:16 29.47942 -81.89633 7521 ft 221 kts 222°
2026-04-22 00:17 29.46790 -81.90823 7397 ft 224 kts 222°
2026-04-22 00:17 29.45630 -81.92028 7273 ft 226 kts 222°
2026-04-22 00:17 29.44463 -81.93243 7154 ft 227 kts 222°
2026-04-22 00:17 29.43306 -81.94443 7035 ft 228 kts 222°
2026-04-22 00:18 29.42118 -81.95683 6917 ft 228 kts 222°
2026-04-22 00:18 29.40958 -81.96894 6787 ft 229 kts 222°
2026-04-22 00:18 29.39773 -81.98127 6669 ft 230 kts 221°
2026-04-22 00:18 29.38367 -81.98932 6511 ft 227 kts 186°
2026-04-22 00:19 29.36804 -81.98892 6376 ft 224 kts 170°
2026-04-22 00:19 29.35253 -81.98717 6246 ft 224 kts 172°
2026-04-22 00:19 29.33696 -81.98617 6121 ft 224 kts 174°
2026-04-22 00:19 29.32141 -81.98533 5994 ft 224 kts 173°
2026-04-22 00:20 29.30610 -81.98863 5864 ft 230 kts 206°
2026-04-22 00:20 29.29349 -81.99992 5735 ft 231 kts 222°
2026-04-22 00:20 29.28173 -82.01249 5610 ft 231 kts 222°
2026-04-22 00:20 29.27002 -82.02507 5483 ft 231 kts 222°
2026-04-22 00:21 29.25831 -82.03774 5356 ft 231 kts 223°
2026-04-22 00:21 29.24661 -82.05040 5243 ft 232 kts 222°
2026-04-22 00:21 29.23487 -82.06319 5110 ft 233 kts 222°
2026-04-22 00:21 29.22314 -82.07602 4987 ft 233 kts 223°
2026-04-22 00:22 29.21152 -82.08878 4961 ft 229 kts 222°
2026-04-22 00:22 29.20013 -82.10132 4959 ft 226 kts 223°
2026-04-22 00:22 29.18884 -82.11375 4949 ft 224 kts 223°
2026-04-22 00:22 29.17763 -82.12608 4944 ft 223 kts 222°
2026-04-22 00:23 29.17025 -82.13418 4941 ft 222 kts 221°
2026-04-22 00:23 29.15677 -82.14155 4936 ft 214 kts 183°
2026-04-22 00:23 29.14226 -82.14034 4942 ft 206 kts 161°
2026-04-22 00:23 29.12847 -82.13611 4943 ft 205 kts 160°
2026-04-22 00:24 29.11456 -82.13229 4949 ft 206 kts 162°
2026-04-22 00:24 29.10051 -82.12885 4946 ft 207 kts 163°
2026-04-22 00:24 29.08650 -82.12532 4952 ft 206 kts 162°
2026-04-22 00:24 29.07249 -82.12175 4951 ft 206 kts 162°
2026-04-22 00:25 29.05854 -82.11822 4955 ft 205 kts 162°
2026-04-22 00:25 29.04460 -82.11467 4954 ft 205 kts 162°
2026-04-22 00:25 29.03072 -82.11104 4956 ft 205 kts 162°
2026-04-22 00:25 29.01679 -82.10749 4965 ft 206 kts 162°
2026-04-22 00:26 29.00257 -82.10552 4966 ft 211 kts 182°
2026-04-22 00:26 28.98863 -82.11128 4964 ft 215 kts 202°
2026-04-22 00:26 28.97511 -82.11885 4893 ft 219 kts 202°
2026-04-22 00:26 28.96133 -82.12663 4775 ft 223 kts 203°
2026-04-22 00:27 28.94740 -82.13453 4651 ft 224 kts 203°
2026-04-22 00:27 28.93358 -82.14241 4535 ft 226 kts 203°
2026-04-22 00:27 28.91953 -82.15043 4449 ft 219 kts 204°
2026-04-22 00:27 28.90612 -82.15811 4381 ft 218 kts 202°
2026-04-22 00:28 28.89240 -82.16599 4338 ft 216 kts 205°
2026-04-22 00:28 28.87905 -82.17359 4256 ft 215 kts 203°
2026-04-22 00:28 28.86565 -82.18120 4173 ft 216 kts 203°
2026-04-22 00:28 28.85219 -82.18889 4076 ft 217 kts 204°
2026-04-22 00:29 28.83874 -82.19665 4022 ft 217 kts 203°
2026-04-22 00:29 28.82552 -82.20432 3977 ft 214 kts 207°
2026-04-22 00:29 28.81234 -82.21185 3891 ft 211 kts 203°
2026-04-22 00:29 28.79922 -82.21939 3867 ft 210 kts 207°
2026-04-22 00:30 28.78625 -82.22691 3757 ft 209 kts 204°
2026-04-22 00:30 28.77316 -82.23460 3671 ft 214 kts 204°
2026-04-22 00:30 28.75989 -82.24244 3569 ft 216 kts 204°
2026-04-22 00:30 28.74648 -82.25024 3460 ft 217 kts 202°
2026-04-22 00:31 28.73295 -82.25799 3349 ft 218 kts 202°
2026-04-22 00:31 28.71920 -82.26586 3216 ft 224 kts 201°
2026-04-22 00:31 28.70502 -82.27388 2951 ft 230 kts 201°
2026-04-22 00:31 28.69060 -82.28201 2699 ft 232 kts 201°
2026-04-22 00:32 28.67507 -82.28504 2471 ft 227 kts 166°
2026-04-22 00:32 28.66186 -82.27697 2201 ft 213 kts 128°
2026-04-22 00:32 28.65406 -82.26340 2186 ft 200 kts 119°
2026-04-22 00:32 28.64624 -82.25057 2188 ft 195 kts 127°
2026-04-22 00:33 28.63628 -82.24001 2198 ft 199 kts 137°
2026-04-22 00:33 28.62505 -82.23045 2195 ft 203 kts 140°
2026-04-22 00:33 28.61394 -82.22095 2187 ft 196 kts 138°
2026-04-22 00:33 28.60326 -82.21148 2195 ft 194 kts 138°
2026-04-22 00:34 28.59244 -82.20205 2189 ft 197 kts 139°
2026-04-22 00:34 28.58163 -82.19255 2189 ft 196 kts 139°
2026-04-22 00:34 28.57098 -82.18310 2189 ft 192 kts 138°
2026-04-22 00:34 28.56049 -82.17388 2191 ft 190 kts 137°
2026-04-22 00:35 28.55014 -82.16479 2186 ft 184 kts 137°
2026-04-22 00:35 28.54011 -82.15594 2185 ft 181 kts 137°
2026-04-22 00:35 28.53018 -82.14721 2184 ft 180 kts 140°
2026-04-22 00:35 28.52028 -82.13859 2186 ft 179 kts 139°
2026-04-22 00:36 28.51044 -82.12997 2184 ft 178 kts 138°
2026-04-22 00:36 28.50070 -82.12145 2184 ft 173 kts 137°
2026-04-22 00:36 28.49154 -82.11345 2186 ft 160 kts 136°
2026-04-22 00:36 28.48295 -82.10590 2188 ft 153 kts 136°
2026-04-22 00:37 28.47468 -82.09863 2185 ft 149 kts 136°
2026-04-22 00:37 28.46655 -82.09151 2191 ft 146 kts 137°
2026-04-22 00:37 28.45933 -82.08519 2187 ft 146 kts 138°
2026-04-22 00:37 28.45124 -82.07806 2187 ft 146 kts 137°
2026-04-22 00:38 28.44325 -82.07107 2190 ft 144 kts 137°
2026-04-22 00:38 28.43531 -82.06408 2193 ft 146 kts 136°
2026-04-22 00:38 28.42716 -82.05697 2196 ft 149 kts 136°
2026-04-22 00:38 28.41888 -82.04974 2197 ft 151 kts 136°
2026-04-22 00:39 28.41055 -82.04246 2198 ft 152 kts 137°
2026-04-22 00:39 28.40217 -82.03513 2201 ft 153 kts 139°
2026-04-22 00:39 28.39377 -82.02778 2202 ft 151 kts 139°
2026-04-22 00:39 28.38552 -82.02059 2201 ft 148 kts 138°
2026-04-22 00:40 28.37743 -82.01354 2197 ft 145 kts 138°
2026-04-22 00:40 28.36950 -82.00662 2189 ft 143 kts 136°
2026-04-22 00:40 28.36169 -81.99974 2187 ft 142 kts 136°
2026-04-22 00:40 28.35390 -81.99296 2185 ft 140 kts 138°
2026-04-22 00:41 28.34634 -81.98633 2187 ft 138 kts 143°
2026-04-22 00:41 28.33871 -81.97962 2203 ft 137 kts 136°
2026-04-22 00:41 28.33117 -81.97309 2199 ft 136 kts 136°
2026-04-22 00:41 28.32373 -81.96661 2203 ft 135 kts 136°
2026-04-22 00:42 28.31631 -81.96014 2196 ft 135 kts 136°
2026-04-22 00:42 28.30876 -81.95352 2201 ft 139 kts 135°
2026-04-22 00:42 28.30099 -81.94674 2210 ft 142 kts 136°
2026-04-22 00:42 28.29311 -81.93991 2217 ft 143 kts 136°
2026-04-22 00:43 28.28496 -81.93282 2214 ft 150 kts 136°
2026-04-22 00:43 28.27650 -81.92538 2208 ft 155 kts 137°
2026-04-22 00:43 28.26818 -81.91783 2212 ft 153 kts 130°
2026-04-22 00:43 28.26049 -81.90918 2193 ft 157 kts 131°
2026-04-22 00:44 28.25260 -81.90090 2195 ft 154 kts 130°
2026-04-22 00:44 28.24488 -81.89259 2200 ft 151 kts 130°
2026-04-22 00:44 28.23720 -81.88445 2198 ft 152 kts 130°
2026-04-22 00:44 28.22948 -81.87613 2207 ft 154 kts 129°
2026-04-22 00:45 28.22174 -81.86765 2203 ft 154 kts 130°
2026-04-22 00:45 28.21413 -81.85948 2203 ft 148 kts 130°
2026-04-22 00:45 28.20660 -81.85134 2208 ft 151 kts 131°
2026-04-22 00:45 28.19904 -81.84319 2193 ft 148 kts 131°
2026-04-22 00:46 28.19168 -81.83527 2195 ft 144 kts 131°
2026-04-22 00:46 28.18428 -81.82744 2189 ft 148 kts 131°
2026-04-22 00:46 28.17694 -81.81948 2198 ft 146 kts 131°
2026-04-22 00:46 28.16909 -81.81220 2210 ft 150 kts 147°
2026-04-22 00:47 28.15822 -81.81199 2190 ft 168 kts 194°
2026-04-22 00:47 28.14741 -81.81749 2207 ft 172 kts 199°
2026-04-22 00:47 28.13632 -81.82267 2203 ft 173 kts 195°
2026-04-22 00:47 28.12517 -81.82784 2205 ft 173 kts 199°
2026-04-22 00:48 28.11646 -81.83757 2245 ft 186 kts 240°
2026-04-22 00:48 28.11112 -81.85093 2252 ft 189 kts 244°
2026-04-22 00:48 28.10594 -81.86451 1904 ft 188 kts 245°
2026-04-22 00:48 28.10114 -81.87777 1975 ft 170 kts 245°
2026-04-22 00:49 28.09709 -81.88982 2157 ft 159 kts 246°
2026-04-22 00:49 28.09296 -81.90119 2236 ft 154 kts 242°
2026-04-22 00:49 28.08830 -81.91225 2319 ft 157 kts 237°
2026-04-22 00:49 28.08454 -81.92448 2157 ft 181 kts 263°
2026-04-22 00:50 28.08349 -81.93844 2036 ft 175 kts 264°
2026-04-22 00:50 28.08246 -81.95116 2101 ft 148 kts 264°
2026-04-22 00:50 28.08156 -81.96216 2065 ft 135 kts 262°
2026-04-22 00:50 28.07903 -81.97245 2058 ft 145 kts 243°
2026-04-22 00:51 28.07411 -81.98299 1948 ft 154 kts 233°
2026-04-22 00:51 28.06818 -81.99266 1993 ft 144 kts 227°
2026-04-22 00:51 28.06214 -82.00157 2112 ft 138 kts 227°
2026-04-22 00:51 28.05571 -82.00906 2114 ft 126 kts 198°
2026-04-22 00:52 28.04813 -82.01290 2160 ft 116 kts 193°
2026-04-22 00:52 28.04045 -82.01632 2123 ft 124 kts 184°
2026-04-22 00:52 28.03205 -82.01923 2040 ft 129 kts 190°
2026-04-22 00:52 28.02499 -82.02478 1842 ft 126 kts 225°
2026-04-22 00:53 28.02137 -82.03360 1758 ft 121 kts 252°
2026-04-22 00:53 28.01665 -82.04096 1619 ft 120 kts 208°
2026-04-22 00:53 28.00930 -82.04603 1370 ft 125 kts 198°
2026-04-22 00:53 28.00146 -82.04978 1185 ft 120 kts 181°
2026-04-22 00:54 27.99387 -82.04915 925 ft 100 kts 144°
2026-04-22 00:54 27.99011 -82.04294 505 ft 94 kts 107°
2026-04-22 00:54 27.98928 -82.03603 252 ft 89 kts 92°
2026-04-22 00:54 27.98931 -82.02960 148 ft 72 kts 92°
2026-04-22 00:55 27.98926 -82.02494 145 ft 47 kts 89°
2026-04-22 00:55 27.98931 -82.02028 146 ft 68 kts 90°
2026-04-22 00:55 27.98926 -82.01108 144 ft 41 kts 88°
2026-04-22 00:56 27.98930 -82.00906 146 ft 23 kts 91°
2026-04-22 00:56 27.98929 -82.00789 146 ft 8 kts 93°
2026-04-22 00:56 27.98872 -82.00757 144 ft 6 kts 176°
2026-04-22 00:56 27.98847 -82.00756 143 ft 0 kts 178°
2026-04-22 00:57 27.98846 -82.00756 143 ft 1 kts 178°
2026-04-22 00:57 27.98814 -82.00754 143 ft 10 kts 177°
2026-04-22 00:57 27.98779 -82.00803 142 ft 8 kts 263°
2026-04-22 00:57 27.98778 -82.00826 142 ft 0 kts 271°
2026-04-22 00:58 27.98776 -82.00840 142 ft 0 kts 263°
2026-04-22 00:58 27.98757 -82.00922 142 ft 14 kts 277°
2026-04-22 00:58 27.98767 -82.00994 144 ft 0 kts 284°